When you browse on this site, cookies collect data to enhance your experience and personalize the content and advertising you see.
Visit our Privacy Policy to learn more. By continuing to use the site, you agree to this use of cookies and data.

Stündliche Wetter Tepeapulco

Heute, 15 Juli, Mittwoch

Zeit Temperatur Niederschläge Wind Luftdruck Luftfeuchtigkeit
00:00 +12°C° 0 mm 1 m/S 562 mmHg 93%
01:00 +12°C° 0 mm 1 m/S 562 mmHg 93%
02:00 +12°C° 0 mm 1 m/S 561 mmHg 93%
03:00 +12°C° 0 mm 1 m/S 561 mmHg 92%
04:00 +11°C° 0 mm 1 m/S 561 mmHg 92%
05:00 +11°C° 0 mm 1 m/S 561 mmHg 92%
06:00 +13°C° 0 mm 1 m/S 562 mmHg 84%
07:00 +16°C° 0 mm 1 m/S 564 mmHg 76%
08:00 +19°C° 0 mm 1 m/S 565 mmHg 69%
09:00 +20°C° 0.1 mm 1 m/S 565 mmHg 61%
10:00 +22°C° 0.1 mm 1 m/S 566 mmHg 54%
11:00 +23°C° 0.1 mm 1 m/S 566 mmHg 47%
12:00 +23°C° 0.9 mm 2 m/S 566 mmHg 50%
13:00 +22°C° 0.9 mm 3 m/S 565 mmHg 54%
14:00 +22°C° 0.9 mm 4 m/S 565 mmHg 57%
15:00 +20°C° 1.1 mm 4 m/S 564 mmHg 63%
16:00 +19°C° 1.1 mm 4 m/S 563 mmHg 69%
17:00 +18°C° 1.1 mm 4 m/S 563 mmHg 75%
18:00 +17°C° 0.5 mm 3 m/S 563 mmHg 80%
19:00 +14°C° 0.5 mm 3 m/S 563 mmHg 85%
20:00 +14°C° 0.5 mm 2 m/S 562 mmHg 91%
21:00 +13°C° 0.1 mm 2 m/S 562 mmHg 92%
22:00 +13°C° 0.1 mm 2 m/S 562 mmHg 93%
23:00 +13°C° 0.1 mm 2 m/S 562 mmHg 94%

Morgen, 16 Juli, Donnerstag

Zeit Temperatur Niederschläge Wind Luftdruck Luftfeuchtigkeit
00:00 +12°C° 0 mm 1 m/S 562 mmHg 93%
01:00 +12°C° 0 mm 1 m/S 561 mmHg 93%
02:00 +11°C° 0 mm 1 m/S 561 mmHg 92%
03:00 +11°C° 0 mm 1 m/S 561 mmHg 91%
04:00 +10°C° 0 mm 0 m/S 561 mmHg 89%
05:00 +10°C° 0 mm 0 m/S 561 mmHg 88%
06:00 +12°C° 0 mm 0 m/S 562 mmHg 79%
07:00 +14°C° 0 mm 0 m/S 564 mmHg 70%
08:00 +17°C° 0 mm 0 m/S 565 mmHg 61%
09:00 +20°C° 0 mm 1 m/S 566 mmHg 55%
10:00 +21°C° 0 mm 2 m/S 566 mmHg 48%
11:00 +22°C° 0 mm 3 m/S 567 mmHg 41%
12:00 +22°C° 0.3 mm 3 m/S 566 mmHg 46%
13:00 +22°C° 0.3 mm 4 m/S 566 mmHg 50%
14:00 +22°C° 0.3 mm 5 m/S 566 mmHg 54%
15:00 +20°C° 1.2 mm 4 m/S 565 mmHg 60%
16:00 +19°C° 1.2 mm 4 m/S 564 mmHg 67%
17:00 +18°C° 1.2 mm 4 m/S 563 mmHg 74%
18:00 +15°C° 0.5 mm 4 m/S 563 mmHg 79%
19:00 +14°C° 0.5 mm 3 m/S 563 mmHg 84%
20:00 +13°C° 0.5 mm 2 m/S 563 mmHg 89%
21:00 +13°C° 0 mm 2 m/S 562 mmHg 90%
22:00 +12°C° 0 mm 2 m/S 562 mmHg 90%
23:00 +11°C° 0 mm 1 m/S 562 mmHg 91%

übermorgen, 17 Juli, Freitag

Zeit Temperatur Niederschläge Wind Luftdruck Luftfeuchtigkeit
00:00 +11°C° 0 mm 1 m/S 562 mmHg 90%
01:00 +10°C° 0 mm 1 m/S 561 mmHg 89%
02:00 +10°C° 0 mm 1 m/S 561 mmHg 88%
03:00 +10°C° 0 mm 1 m/S 561 mmHg 85%
04:00 +9°C° 0 mm 1 m/S 561 mmHg 83%
05:00 +9°C° 0 mm 1 m/S 561 mmHg 80%
06:00 +10°C° 0 mm 0 m/S 562 mmHg 70%
07:00 +13°C° 0 mm 0 m/S 564 mmHg 60%
08:00 +16°C° 0 mm 0 m/S 565 mmHg 51%
09:00 +19°C° 0 mm 1 m/S 566 mmHg 46%
10:00 +21°C° 0 mm 1 m/S 566 mmHg 42%
11:00 +21°C° 0 mm 2 m/S 567 mmHg 37%
12:00 +21°C° 0.2 mm 2 m/S 566 mmHg 41%
13:00 +21°C° 0.2 mm 3 m/S 566 mmHg 46%
14:00 +21°C° 0.2 mm 4 m/S 565 mmHg 50%
15:00 +19°C° 0.9 mm 4 m/S 564 mmHg 57%
16:00 +18°C° 0.9 mm 4 m/S 564 mmHg 64%
17:00 +17°C° 0.9 mm 4 m/S 563 mmHg 71%
18:00 +16°C° 0.4 mm 3 m/S 563 mmHg 76%
19:00 +13°C° 0.4 mm 3 m/S 563 mmHg 81%
20:00 +13°C° 0.4 mm 2 m/S 563 mmHg 86%
21:00 +13°C° 0 mm 2 m/S 563 mmHg 85%
22:00 +12°C° 0 mm 1 m/S 562 mmHg 84%
23:00 +12°C° 0 mm 1 m/S 562 mmHg 83%

18 Juli, Samstag

Zeit Temperatur Niederschläge Wind Luftdruck Luftfeuchtigkeit
00:00 +12°C° 0 mm 1 m/S 562 mmHg 83%
01:00 +11°C° 0 mm 1 m/S 561 mmHg 83%
02:00 +11°C° 0 mm 1 m/S 561 mmHg 83%
03:00 +9°C° 0 mm 0 m/S 561 mmHg 83%
04:00 +9°C° 0 mm 0 m/S 561 mmHg 83%
05:00 +9°C° 0 mm 0 m/S 560 mmHg 83%
06:00 +11°C° 0 mm 0 m/S 562 mmHg 74%
07:00 +14°C° 0 mm 1 m/S 563 mmHg 66%
08:00 +16°C° 0 mm 1 m/S 565 mmHg 57%
09:00 +18°C° 0 mm 2 m/S 565 mmHg 52%
10:00 +19°C° 0 mm 2 m/S 566 mmHg 47%
11:00 +21°C° 0 mm 3 m/S 566 mmHg 42%
12:00 +21°C° 0.1 mm 4 m/S 565 mmHg 44%
13:00 +21°C° 0.1 mm 4 m/S 565 mmHg 47%
14:00 +20°C° 0.1 mm 4 m/S 564 mmHg 49%
15:00 +19°C° 0.5 mm 4 m/S 564 mmHg 57%
16:00 +18°C° 0.5 mm 4 m/S 563 mmHg 64%
17:00 +17°C° 0.5 mm 4 m/S 563 mmHg 72%
18:00 +14°C° 0.1 mm 3 m/S 562 mmHg 78%
19:00 +14°C° 0.1 mm 2 m/S 562 mmHg 85%
20:00 +12°C° 0.1 mm 2 m/S 561 mmHg 91%
21:00 +12°C° 0 mm 2 m/S 562 mmHg 92%
22:00 +11°C° 0 mm 1 m/S 562 mmHg 93%
23:00 +11°C° 0 mm 1 m/S 562 mmHg 93%

19 Juli, Sonntag

Zeit Temperatur Niederschläge Wind Luftdruck Luftfeuchtigkeit
00:00 +11°C° 0 mm 1 m/S 561 mmHg 93%
01:00 +10°C° 0 mm 1 m/S 561 mmHg 93%
02:00 +9°C° 0 mm 0 m/S 560 mmHg 93%
03:00 +9°C° 0 mm 0 m/S 560 mmHg 92%
04:00 +9°C° 0 mm 0 m/S 560 mmHg 91%
05:00 +8°C° 0 mm 0 m/S 560 mmHg 91%
06:00 +11°C° 0 mm 0 m/S 562 mmHg 83%
07:00 +13°C° 0 mm 0 m/S 563 mmHg 75%
08:00 +15°C° 0 mm 0 m/S 565 mmHg 67%
09:00 +17°C° 0.1 mm 0 m/S 565 mmHg 62%
10:00 +20°C° 0.1 mm 1 m/S 565 mmHg 57%
11:00 +22°C° 0.1 mm 1 m/S 566 mmHg 52%
12:00 +20°C° 1.5 mm 2 m/S 565 mmHg 56%
13:00 +20°C° 1.5 mm 2 m/S 564 mmHg 60%
14:00 +20°C° 1.5 mm 3 m/S 564 mmHg 64%
15:00 +19°C° 2 mm 3 m/S 563 mmHg 70%
16:00 +18°C° 2 mm 3 m/S 563 mmHg 75%
17:00 +17°C° 2 mm 3 m/S 562 mmHg 81%
18:00 +16°C° 1.1 mm 3 m/S 562 mmHg 84%
19:00 +15°C° 1.1 mm 2 m/S 562 mmHg 87%
20:00 +14°C° 1.1 mm 1 m/S 562 mmHg 90%
21:00 +14°C° 0.4 mm 1 m/S 562 mmHg 91%
22:00 +13°C° 0.4 mm 1 m/S 562 mmHg 92%
23:00 +13°C° 0.4 mm 1 m/S 562 mmHg 93%

20 Juli, Montag

Zeit Temperatur Niederschläge Wind Luftdruck Luftfeuchtigkeit
00:00 +13°C° 0.1 mm 1 m/S 562 mmHg 93%
01:00 +12°C° 0.1 mm 1 m/S 561 mmHg 94%
02:00 +12°C° 0.1 mm 1 m/S 561 mmHg 94%
03:00 +11°C° 0 mm 1 m/S 561 mmHg 94%
04:00 +11°C° 0 mm 1 m/S 561 mmHg 94%
05:00 +11°C° 0 mm 1 m/S 561 mmHg 95%
06:00 +13°C° 0 mm 1 m/S 562 mmHg 88%
07:00 +14°C° 0 mm 0 m/S 563 mmHg 82%
08:00 +15°C° 0 mm 0 m/S 564 mmHg 75%
09:00 +19°C° 1 mm 1 m/S 564 mmHg 70%
10:00 +20°C° 1 mm 1 m/S 565 mmHg 65%
11:00 +21°C° 1 mm 2 m/S 565 mmHg 59%
12:00 +20°C° 1.9 mm 2 m/S 564 mmHg 63%
13:00 +20°C° 1.9 mm 3 m/S 564 mmHg 67%
14:00 +19°C° 1.9 mm 3 m/S 563 mmHg 70%
15:00 +18°C° 1.2 mm 3 m/S 563 mmHg 74%
16:00 +17°C° 1.2 mm 3 m/S 562 mmHg 77%
17:00 +17°C° 1.2 mm 3 m/S 562 mmHg 81%
18:00 +14°C° 0.5 mm 3 m/S 562 mmHg 84%
19:00 +14°C° 0.5 mm 2 m/S 562 mmHg 87%
20:00 +13°C° 0.5 mm 2 m/S 562 mmHg 90%
21:00 +13°C° 0 mm 2 m/S 561 mmHg 90%
22:00 +12°C° 0 mm 1 m/S 561 mmHg 90%
23:00 +12°C° 0 mm 1 m/S 561 mmHg 90%
Mehr zeigen